H1 CPF 2 NER 2025 9 26 9 269 01 glonass129 H2 1106402 9129 37868 2025 9 26 0 0 0 2025 9 29 23 45 0 900 1 1 0 0 0 1 H9 10 0 60944 0.00000 0 7637650.483 23994985.940 -4226027.565 10 0 60944 900.00000 0 7893469.244 24266016.607 -1026279.344 10 0 60944 1800.00000 0 8040074.425 24144621.172 2193343.392 10 0 60944 2700.00000 0 8025055.252 23650663.994 5370532.406 10 0 60944 3600.00000 0 7801833.634 22816095.187 8443855.471 10 0 60944 4500.00000 0 7331856.488 21683547.216 11353929.631 10 0 60944 5400.00000 0 6586455.608 20304509.070 14044551.837 10 0 60944 6300.00000 0 5548297.813 18737154.524 16463766.609 10 0 60944 7200.00000 0 4212365.120 17043914.765 18564851.722 10 0 60944 8100.00000 0 2586423.934 15288895.629 20307204.596 10 0 60944 9000.00000 0 690963.057 13535245.623 21657113.962 10 0 60944 9900.00000 0 -1441398.176 11842582.686 22588403.234 10 0 60944 10800.00000 0 -3767008.948 10264585.020 23082934.277 10 0 60944 11700.00000 0 -6232749.998 8846844.678 23130962.363 10 0 60944 12600.00000 0 -8777998.563 7625072.040 22731335.411 10 0 60944 13500.00000 0 -11336916.714 6623725.219 21891533.051 10 0 60944 14400.00000 0 -13840971.002 5855121.415 20627543.471 10 0 60944 15300.00000 0 -16221581.332 5319067.779 18963578.715 10 0 60944 16200.00000 0 -18412790.941 5003028.215 16931631.798 10 0 60944 17100.00000 0 -20353847.640 4882820.514 14570881.889 10 0 60944 18000.00000 0 -21991589.038 4923816.079 11926956.838 10 0 60944 18900.00000 0 -23282531.769 5082593.263 9051065.291 10 0 60944 19800.00000 0 -24194576.101 5308975.748 5999013.617 10 0 60944 20700.00000 0 -24708252.764 5548370.501 2830125.785 10 0 60944 21600.00000 0 -24817457.602 5744306.317 -393913.155 10 0 60944 22500.00000 0 -24529641.142 5841064.599 -3610267.076 10 0 60944 23400.00000 0 -23865443.302 5786289.242 -6756187.632 10 0 60944 24300.00000 0 -22857787.381 5533462.736 -9770256.192 10 0 60944 25200.00000 0 -21550470.898 5044140.836 -12593602.717 10 0 60944 26100.00000 0 -19996312.855 4289848.225 -15171075.603 10 0 60944 27000.00000 0 -18254936.341 3253552.125 -17452337.581 10 0 60944 27900.00000 0 -16390281.269 1930649.046 -19392864.457 10 0 60944 28800.00000 0 -14467953.723 329421.028 -20954825.702 10 0 60944 29700.00000 0 -12552525.216 -1529059.209 -22107828.753 10 0 60944 30600.00000 0 -10704896.954 -3611570.932 -22829512.093 10 0 60944 31500.00000 0 -8979841.016 -5873908.916 -23105975.635 10 0 60944 32400.00000 0 -7423822.122 -8262518.593 -22932040.602 10 0 60944 33300.00000 0 -6073191.131 -10716533.545 -22311334.845 10 0 60944 34200.00000 0 -4952825.000 -13170129.133 -21256203.175 10 0 60944 35100.00000 0 -4075268.433 -15555092.982 -19787445.953 10 0 60944 36000.00000 0 -3440410.814 -17803504.290 -17933892.503 10 0 60944 36900.00000 0 -3035709.132 -19850409.761 -15731819.224 10 0 60944 37800.00000 0 -2836944.478 -21636384.624 -13224225.108 10 0 60944 38700.00000 0 -2809477.269 -23109872.585 -10459980.015 10 0 60944 39600.00000 0 -2909945.613 -24229208.163 -7492863.346 10 0 60944 40500.00000 0 -3088333.011 -24964238.683 -4380512.577 10 0 60944 41400.00000 0 -3290316.517 -25297480.185 -1183302.576 10 0 60944 42300.00000 0 -3459795.343 -25224761.132 2036822.332 10 0 60944 43200.00000 0 -3541492.920 -24755329.228 5217541.081 10 0 60944 44100.00000 0 -3483522.934 -23911418.874 8297350.764 10 0 60944 45000.00000 0 -3239811.908 -22727298.932 11216741.455 10 0 60944 45900.00000 0 -2772277.285 -21247841.665 13919329.410 10 0 60944 46800.00000 0 -2052670.407 -19526672.953 16352928.244 10 0 60944 47700.00000 0 -1064007.806 -17623980.778 18470539.005 10 0 60944 48600.00000 0 198468.799 -15604072.351 20231241.762 10 0 60944 49500.00000 0 1726844.173 -13532780.212 21600973.143 10 0 60944 50400.00000 0 3500612.460 -11474823.444 22553176.240 10 0 60944 51300.00000 0 5487289.421 -9491231.758 23069311.374 10 0 60944 52200.00000 0 7643530.714 -7636937.609 23139218.479 10 0 60944 53100.00000 0 9916712.364 -5958634.802 22761324.064 10 0 60944 54000.00000 0 12246910.688 -4492991.434 21942688.150 10 0 60944 54900.00000 0 14569202.423 -3265290.875 20698889.059 10 0 60944 55800.00000 0 16816192.144 -2288557.387 19053746.553 10 0 60944 56700.00000 0 18920664.155 -1563203.415 17038886.561 10 0 60944 57600.00000 0 20818249.967 -1077214.272 14693153.616 10 0 60944 58500.00000 0 22450000.849 -806863.776 12061880.102 10 0 60944 59400.00000 0 23764757.852 -717932.128 9196024.418 10 0 60944 60300.00000 0 24721219.159 -767375.924 6151193.152 10 0 60944 61200.00000 0 25289616.416 -905380.637 2986565.242 10 0 60944 62100.00000 0 25452927.564 -1077708.990 -236261.315 10 0 60944 63000.00000 0 25207572.858 -1228245.311 -3454477.417 10 0 60944 63900.00000 0 24563562.586 -1301626.804 -6605300.886 10 0 60944 64800.00000 0 23544088.464 -1245848.247 -9627218.884 10 0 60944 65700.00000 0 22184574.683 -1014727.246 -12461208.546 10 0 60944 66600.00000 0 20531228.115 -570122.759 -15051909.847 10 0 60944 67500.00000 0 18639148.978 116189.842 -17348725.737 10 0 60944 68400.00000 0 16570082.374 1061069.166 -19306826.190 10 0 60944 69300.00000 0 14389906.705 2269047.090 -20888035.069 10 0 60944 70200.00000 0 12165966.108 3731899.099 -22061581.510 10 0 60944 71100.00000 0 9964360.512 5428764.756 -22804700.699 10 0 60944 72000.00000 0 7847308.305 7326813.550 -23103072.398 10 0 60944 72900.00000 0 5870692.941 9382427.859 -22951089.255 10 0 60944 73800.00000 0 4081896.285 11542852.726 -22351950.631 10 0 60944 74700.00000 0 2518008.764 13748242.294 -21317581.371 10 0 60944 75600.00000 0 1204489.747 15934016.205 -19868378.595 10 0 60944 76500.00000 0 154332.022 18033426.423 -18032792.921 10 0 60944 77400.00000 0 -632237.380 19980226.479 -15846753.831 10 0 60944 78300.00000 0 -1167510.619 21711331.276 -13352951.785 10 0 60944 79200.00000 0 -1475520.362 23169356.526 -10599992.281 10 0 60944 80100.00000 0 -1590764.830 24304932.340 -7641439.424 10 0 60944 81000.00000 0 -1556493.010 25078695.480 -4534768.370 10 0 60944 81900.00000 0 -1422624.475 25462878.564 -1340247.515 10 0 60944 82800.00000 0 -1243393.044 25442431.611 1880227.652 10 0 60944 83700.00000 0 -1074814.501 25015630.980 5064326.573 10 0 60944 84600.00000 0 -972085.277 24194152.100 8150478.926 10 0 60944 85500.00000 0 -987021.364 23002604.488 11079050.919 10 0 60945 0.00000 0 -1165644.449 21477549.753 13793480.764 10 0 60945 900.00000 0 -1546015.956 19666043.190 16241354.274 10 0 60945 1800.00000 0 -2156408.743 17623761.756 18375397.832 10 0 60945 2700.00000 0 -3013892.732 15412792.912 20154376.144 10 0 60945 3600.00000 0 -4123393.288 13099176.901 21543875.400 10 0 60945 4500.00000 0 -5477262.139 10750302.095 22516959.658 10 0 60945 5400.00000 0 -7055379.805 8432259.621 23054688.607 10 0 60945 6300.00000 0 -8825786.997 6207264.949 23146487.337 10 0 60945 7200.00000 0 -10745821.020 4131251.544 22790360.965 10 0 60945 8100.00000 0 -12763712.619 2251734.836 21992949.429 10 0 60945 9000.00000 0 -14820579.748 606034.203 20769420.177 10 0 60945 9900.00000 0 -16852738.124 -780073.607 19143199.134 10 0 60945 10800.00000 0 -18794234.826 -1893213.390 17145543.067 10 0 60945 11700.00000 0 -20579501.245 -2732746.271 14814959.297 10 0 60945 12600.00000 0 -22146015.705 -3310565.293 12196481.750 10 0 60945 13500.00000 0 -23436864.707 -3650359.191 9340815.260 10 0 60945 14400.00000 0 -24403094.862 -3786374.090 6303363.089 10 0 60945 15300.00000 0 -25005755.384 -3761724.359 3143155.494 10 0 60945 16200.00000 0 -25217543.260 -3626323.530 -78300.246 10 0 60945 17100.00000 0 -25023979.465 -3434522.927 -3298225.636 10 0 60945 18000.00000 0 -24424064.164 -3242558.893 -6453808.121 10 0 60945 18900.00000 0 -23430381.021 -3105918.389 -9483443.901 10 0 60945 19800.00000 0 -22068644.400 -3076736.786 -12327960.288 10 0 60945 20700.00000 0 -20376707.389 -3201340.733 -14931791.530 10 0 60945 21600.00000 0 -18403072.034 -3518042.910 -17244083.093 10 0 60945 22500.00000 0 -16204964.773 -4055284.665 -19219700.963 10 0 60945 23400.00000 0 -13846058.953 -4830207.389 -20820124.693 10 0 60945 24300.00000 0 -11393941.388 -5847714.743 -22014205.801 10 0 60945 25200.00000 0 -8917430.713 -7100066.477 -22778776.225 10 0 60945 26100.00000 0 -6483861.279 -8567021.442 -23099094.995 10 0 60945 27000.00000 0 -4156447.280 -10216523.620 -22969125.014 10 0 60945 27900.00000 0 -1991837.753 -12005901.762 -22391635.471 10 0 60945 28800.00000 0 -37964.406 -13883531.206 -21378129.143 10 0 60945 29700.00000 0 1667728.903 -15790887.031 -19948597.473 10 0 60945 30600.00000 0 3099602.853 -17664901.319 -18131109.695 10 0 60945 31500.00000 0 4244632.978 -19440524.769 -15961245.552 10 0 60945 32400.00000 0 5102682.720 -21053384.729 -13481384.061 10 0 60945 33300.00000 0 5686231.084 -22442428.142 -10739863.443 10 0 60945 34200.00000 0 6019569.682 -23552438.971 -7790029.636 10 0 60945 35100.00000 0 6137506.014 -24336325.461 -4689192.711 10 0 60945 36000.00000 0 6083630.233 -24757082.646 -1497511.970 10 0 60945 36900.00000 0 5908220.438 -24789349.427 1723168.386 10 0 60945 37800.00000 0 5665876.124 -24420496.698 4910510.561 10 0 60945 38700.00000 0 5412980.145 -23651202.663 8002878.868 10 0 60945 39600.00000 0 5205096.074 -22495492.751 10940517.487 10 0 60945 40500.00000 0 5094409.999 -20980243.531 13666688.661 10 0 60945 41400.00000 0 5127323.400 -19144171.917 16128750.803 10 0 60945 42300.00000 0 5342297.216 -17036351.786 18279157.274 10 0 60945 43200.00000 0 5768036.554 -14714319.061 20076358.293 10 0 60945 44100.00000 0 6422091.479 -12241842.776 21485590.216 10 0 60945 45000.00000 0 7309932.265 -9686452.946 22479538.403 10 0 60945 45900.00000 0 8424538.231 -7116825.644 23038861.981 10 0 60945 46800.00000 0 9746518.532 -4600131.454 23152571.012 10 0 60945 47700.00000 0 11244761.671 -2199455.033 22818248.819 10 0 60945 48600.00000 0 12877589.037 28609.189 22042114.661 10 0 60945 49500.00000 0 14594367.134 2036086.920 20838924.340 10 0 60945 50400.00000 0 16337514.068 3785391.923 19231709.019 10 0 60945 51300.00000 0 18044819.227 5250658.742 17251355.220 10 0 60945 52200.00000 0 19651981.510 6418584.363 14936031.808 10 0 60945 53100.00000 0 21095261.442 7288742.867 12330472.809 10 0 60945 54000.00000 0 22314136.811 7873358.794 9485127.841 10 0 60945 54900.00000 0 23253850.236 8196547.528 6455194.948 10 0 60945 55800.00000 0 23867740.504 8293053.590 3299553.565 10 0 60945 56700.00000 0 24119257.777 8206539.339 79617.891 10 0 60945 57600.00000 0 23983575.395 7987496.217 -3141866.736 10 0 60945 58500.00000 0 23448727.683 7690867.403 -6302060.029 10 0 60945 59400.00000 0 22516223.165 7373483.735 -9339269.900 10 0 60945 60300.00000 0 21201105.004 7091423.396 -12194176.429 10 0 60945 61200.00000 0 19531454.381 6897409.496 -14811010.581 10 0 60945 62100.00000 0 17547356.664 6838358.421 -17138662.593 10 0 60945 63000.00000 0 15299373.564 6953185.266 -19131696.475 10 0 60945 63900.00000 0 12846585.895 7270961.590 -20751249.270 10 0 60945 64800.00000 0 10254290.052 7809505.190 -21965796.449 10 0 60945 65700.00000 0 7591445.996 8574462.769 -22751768.035 10 0 60945 66600.00000 0 4927984.991 9558924.777 -23094003.421 10 0 60945 67500.00000 0 2332090.803 10743588.628 -22986036.558 10 0 60945 68400.00000 0 -132431.358 12097462.800 -22430206.902 10 0 60945 69300.00000 0 -2408588.132 13579081.163 -21437595.201 10 0 60945 70200.00000 0 -4448332.664 15138175.170 -20027786.817 10 0 60945 71100.00000 0 -6214312.903 16717732.330 -18228468.737 10 0 60945 72000.00000 0 -7681162.663 18256353.230 -16074869.638 10 0 60945 72900.00000 0 -8836284.235 19690807.195 -13609055.350 10 0 60945 73800.00000 0 -9680092.997 20958678.722 -10879094.690 10 0 60945 74700.00000 0 -10225717.096 22000993.499 -7938112.992 10 0 60945 75600.00000 0 -10498168.154 22764714.143 -4843252.541 10 0 60945 76500.00000 0 -10533020.801 23205001.793 -1654560.655 10 0 60945 77400.00000 0 -10374659.079 23287149.830 1566172.763 10 0 60945 78300.00000 0 -10074165.362 22988110.049 4756605.754 10 0 60945 79200.00000 0 -9686941.749 22297548.827 7855040.343 10 0 60945 80100.00000 0 -9270164.481 21218390.398 10801601.701 10 0 60945 81000.00000 0 -8880178.214 19766825.587 13539378.782 10 0 60945 81900.00000 0 -8569938.951 17971786.245 16015505.840 10 0 60945 82800.00000 0 -8386611.980 15873907.332 18182165.518 10 0 60945 83700.00000 0 -8369424.441 13524019.317 19997495.859 10 0 60945 84600.00000 0 -8547861.488 10981232.309 21426385.426 10 0 60945 85500.00000 0 -8940280.925 8310689.788 22441142.604 10 0 60946 0.00000 0 -9553004.056 5581083.133 23022027.289 10 0 60946 900.00000 0 -10379921.644 2862026.072 23157635.582 10 0 60946 1800.00000 0 -11402631.789 221399.087 22845129.459 10 0 60946 2700.00000 0 -12591106.891 -2277233.345 22090307.516 10 0 60946 3600.00000 0 -13904863.460 -4577023.817 20907513.405 10 0 60946 4500.00000 0 -15294588.788 -6629964.487 19319382.473 10 0 60946 5400.00000 0 -16704159.101 -8398643.255 17356429.395 10 0 60946 6300.00000 0 -18072967.140 -9857560.535 15056482.469 10 0 60946 7200.00000 0 -19338463.503 -10993951.138 12463973.235 10 0 60946 8100.00000 0 -20438806.247 -11808075.911 9629093.109 10 0 60946 9000.00000 0 -21315507.689 -12312969.702 6606831.631 10 0 60946 9900.00000 0 -21915966.370 -12533655.006 3455913.900 10 0 60946 10800.00000 0 -22195775.978 -12505853.450 237657.398 10 0 60946 11700.00000 0 -22120711.698 -12274248.957 -2985229.385 10 0 60946 12600.00000 0 -21668307.468 -11890376.092 -6149882.095 10 0 60946 13500.00000 0 -20828954.779 -11410223.671 -9194523.934 10 0 60946 14400.00000 0 -19606473.958 -10891656.562 -12059691.165 10 0 60946 15300.00000 0 -18018131.559 -10391766.825 -14689414.658 10 0 60946 16200.00000 0 -16094101.475 -9964268.702 -17032332.268 10 0 60946 17100.00000 0 -13876391.527 -9657050.191 -19042708.462 10 0 60946 18000.00000 0 -11417280.464 -9509987.103 -20681339.658 10 0 60946 18900.00000 0 -8777331.454 -9553113.923 -21916326.552 10 0 60946 19800.00000 0 -6023066.244 -9805230.137 -22723697.855 10 0 60946 20700.00000 0 -3224398.543 -10273001.534 -23087873.223 10 0 60946 21600.00000 0 -451935.079 -10950594.401 -23001956.904 10 0 60946 22500.00000 0 2225742.086 -11819857.417 -22467857.285 10 0 60946 23400.00000 0 4744698.114 -12851042.450 -21496231.240 10 0 60946 24300.00000 0 7048063.654 -14004032.447 -20106255.805 10 0 60946 25200.00000 0 9088148.905 -15230023.134 -18325233.152 10 0 60946 26100.00000 0 10828166.891 -16473586.192 -16188038.073 10 0 60946 27000.00000 0 12243496.371 -17675025.768 -13736420.210 10 0 60946 27900.00000 0 13322434.454 -18772928.215 -11018175.831 10 0 60946 28800.00000 0 14066410.639 -19706797.267 -8086206.427 10 0 60946 29700.00000 0 14489656.595 -20419663.809 -4997483.236 10 0 60946 30600.00000 0 14618348.728 -20860560.934 -1811938.362 10 0 60946 31500.00000 0 14489262.286 -20986761.127 1408695.712 10 0 60946 32400.00000 0 14147995.841 -20765682.755 4602075.802 10 0 60946 33300.00000 0 13646842.304 -20176387.115 7706444.327 10 0 60946 34200.00000 0 13042396.835 -19210604.549 10661809.808 10 0 60946 35100.00000 0 12393002.290 -17873247.668 13411089.915 10 0 60946 36000.00000 0 11756138.998 -16182390.878 15901196.353 10 0 60946 36900.00000 0 11185867.490 -14168717.190 18084042.251 10 0 60946 37800.00000 0 10730430.142 -11874454.867 19917454.286 10 0 60946 38700.00000 0 10430110.971 -9351847.014 21365973.646 10 0 60946 39600.00000 0 10315442.062 -6661216.008 22401531.798 10 0 60946 40500.00000 0 10405830.967 -3868700.845 23003989.190 10 0 60946 41400.00000 0 10708666.321 -1043758.670 23161527.180 10 0 60946 42300.00000 0 11218939.588 1743468.615 22870885.707 10 0 60946 43200.00000 0 11919399.944 4424816.133 22137441.661 10 0 60946 44100.00000 0 12781237.628 6936678.106 20975125.319 10 0 60946 45000.00000 0 13765269.423 9222404.804 19406174.855 10 0 60946 45900.00000 0 14823579.075 11234415.915 17460731.619 10 0 60946 46800.00000 0 15901546.315 12935942.773 15176281.731 10 0 60946 47700.00000 0 16940181.374 14302326.514 12596952.529 10 0 60946 48600.00000 0 17878668.363 15321817.105 9772675.372 10 0 60946 49500.00000 0 18657011.176 15995838.555 6758229.283 10 0 60946 50400.00000 0 19218670.188 16338707.839 3612182.881 10 0 60946 51300.00000 0 19513077.433 16376818.094 395754.635 10 0 60946 52200.00000 0 19497922.163 16147319.666 -2828386.179 10 0 60946 53100.00000 0 19141107.697 15696354.291 -5997353.553 10 0 60946 54000.00000 0 18422294.056 15076917.388 -9049288.350 10 0 60946 54900.00000 0 17333958.295 14346439.855 -11924585.288 10 0 60946 55800.00000 0 15881925.102 13564193.302 -14567077.241 10 0 60946 56700.00000 0 14085343.136 12788630.575 -16925151.610 10 0 60946 57600.00000 0 11976106.525 12074776.377 -18952775.032 10 0 60946 58500.00000 0 9597745.128 11471780.547 -20610404.823 10 0 60946 59400.00000 0 7003830.068 11020739.384 -21865768.253 10 0 60946 60300.00000 0 4255961.889 10752878.468 -22694493.879 10 0 60946 61200.00000 0 1421426.522 10688174.466 -23080582.587 10 0 60946 62100.00000 0 -1429381.878 10834474.160 -23016709.642 10 0 60946 63000.00000 0 -4225662.623 11187147.202 -22504352.775 10 0 60946 63900.00000 0 -6898921.265 11729286.034 -21553745.033 10 0 60946 64800.00000 0 -9385580.175 12432442.900 -20183654.753 10 0 60946 65700.00000 0 -11629378.562 13257871.019 -18420998.474 10 0 60946 66600.00000 0 -13583462.984 14158215.704 -16300295.880 10 0 60946 67500.00000 0 -15212082.994 15079582.424 -13862978.797 10 0 60946 68400.00000 0 -16491823.559 15963893.245 -11156569.009 10 0 60946 69300.00000 0 -17412325.610 16751431.368 -8233741.977 10 0 60946 70200.00000 0 -17976467.686 17383466.078 -5151295.512 10 0 60946 71100.00000 0 -18200004.222 17804847.576 -1969043.990 10 0 60946 72000.00000 0 -18110678.521 17966462.940 1251340.141 10 0 60946 72900.00000 0 -17746850.160 17827450.728 4447515.157 10 0 60946 73800.00000 0 -17155696.326 17357082.244 7557666.599 10 0 60946 74700.00000 0 -16391063.818 16536231.582 10521689.101 10 0 60946 75600.00000 0 -15511062.386 15358373.855 13282331.786 10 0 60946 76500.00000 0 -14575500.140 13830070.475 15786286.503 10 0 60946 77400.00000 0 -13643267.817 11970921.486 17985199.441 10 0 60946 78300.00000 0 -12769780.262 9812986.558 19836588.322 10 0 60946 79200.00000 0 -12004580.817 7399697.764 21304649.142 10 0 60946 80100.00000 0 -11389207.419 4784307.757 22360938.345 10 0 60946 81000.00000 0 -10955408.435 2027935.600 22984918.472 10 0 60946 81900.00000 0 -10723782.072 -802711.298 23164357.426 10 0 60946 82800.00000 0 -10702896.055 -3637847.459 22895573.807 10 0 60946 83700.00000 0 -10888924.854 -6407250.615 22183523.118 10 0 60946 84600.00000 0 -11265820.808 -9042927.036 21041722.114 10 0 60946 85500.00000 0 -11806013.667 -11481692.419 19492011.156 10 0 60947 0.00000 0 -12471611.265 -13667562.438 17564157.321 10 0 60947 900.00000 0 -13216053.558 -15553855.388 15295302.611 10 0 60947 1800.00000 0 -13986151.681 -17104916.449 12729268.276 10 0 60947 2700.00000 0 -14724429.120 -18297394.780 9915723.191 10 0 60947 3600.00000 0 -15371666.526 -19121015.885 6909233.111 10 0 60947 4500.00000 0 -15869543.320 -19578816.571 3768207.154 10 0 60947 5400.00000 0 -16163263.837 -19686830.969 553761.568 10 0 60947 6300.00000 0 -16204055.449 -19473239.535 -2671476.956 10 0 60947 7200.00000 0 -15951430.760 -18977016.134 -5844604.217 10 0 60947 8100.00000 0 -15375115.463 -18246130.110 -8903682.239 10 0 60947 9000.00000 0 -14456557.335 -17335379.832 -11788967.682 10 0 60947 9900.00000 0 -13189949.713 -16303950.448 -14444098.815 10 0 60947 10800.00000 0 -11582723.661 -15212800.818 -16817215.762 10 0 60947 11700.00000 0 -9655486.072 -14121992.127 -18861990.206 10 0 60947 12600.00000 0 -7441404.975 -13088073.189 -20538542.809 10 0 60947 13500.00000 0 -4985067.299 -12161634.817 -21814229.322 10 0 60947 14400.00000 0 -2340857.053 -11385138.003 -22664279.456 10 0 60947 15300.00000 0 429077.533 -10791108.447 -23072275.986 10 0 60947 16200.00000 0 3257181.964 -10400773.729 -23030465.221 10 0 60947 17100.00000 0 6073079.068 -10223200.022 -22539893.675 10 0 60947 18000.00000 0 8806269.494 -10254963.469 -21610369.473 10 0 60947 18900.00000 0 11388836.028 -10480368.314 -20260250.706 10 0 60947 19800.00000 0 13758038.984 -10872200.428 -18516066.337 10 0 60947 20700.00000 0 15858695.095 -11392982.244 -16411978.618 10 0 60947 21600.00000 0 17645241.977 -11996673.941 -13989098.915 10 0 60947 22500.00000 0 19083403.953 -12630747.264 -11294671.563 10 0 60947 23400.00000 0 20151392.066 -13238542.959 -8381142.744 10 0 60947 24300.00000 0 20840590.916 -13761811.406 -5305133.374 10 0 60947 25200.00000 0 21155706.548 -14143328.882 -2126336.489 10 0 60947 26100.00000 0 21114372.045 -14329479.191 1093639.140 10 0 60947 27000.00000 0 20746229.978 -14272692.493 4292456.809 10 0 60947 27900.00000 0 20091532.292 -13933639.476 7408248.531 10 0 60947 28800.00000 0 19199317.853 -13283089.657 10380798.073 10 0 60947 29700.00000 0 18125244.848 -12303356.790 13152688.630 10 0 60947 30600.00000 0 16929168.958 -10989271.518 15670394.349 10 0 60947 31500.00000 0 15672568.194 -9348640.982 17885296.153 10 0 60947 32400.00000 0 14415921.021 -7402176.011 19754603.993 10 0 60947 33300.00000 0 13216145.962 -5182888.131 21242169.396 10 0 60947 34200.00000 0 12124208.064 -2734980.080 22319174.077 10 0 60947 35100.00000 0 11182990.650 -112273.881 22964682.555 10 0 60947 36000.00000 0 10425519.970 2623760.800 23166048.807 10 0 60947 36900.00000 0 9873616.110 5406299.062 22919169.289 10 0 60947 37800.00000 0 9537026.330 8165681.820 22228577.023 10 0 60947 38700.00000 0 9413077.526 10832063.774 21107373.889 10 0 60947 39600.00000 0 9486863.439 13338080.795 19577000.855 10 0 60947 40500.00000 0 9731960.355 15621427.775 17666848.593 10 0 60947 41400.00000 0 10111643.138 17627240.839 15413713.755 10 0 60947 42300.00000 0 10580552.447 19310184.943 12861109.124 10 0 60947 43200.00000 0 11086744.669 20636159.293 10058438.876 10 0 60947 44100.00000 0 11574039.381 21583548.166 7060053.163 10 0 60947 45000.00000 0 11984565.817 22143963.168 3924199.147 10 0 60947 45900.00000 0 12261400.422 22322444.072 711888.310 10 0 60947 46800.00000 0 12351182.778 22137108.155 -2514297.816 10 0 60947 47700.00000 0 12206597.309 21618261.555 -5691439.382 10 0 60947 48600.00000 0 11788613.122 20807009.380 -8757522.021 10 0 60947 49500.00000 0 11068384.308 19753423.224 -11652666.616 10 0 60947 50400.00000 0 10028727.312 18514344.112 -14320318.901 10 0 60947 51300.00000 0 8665110.093 17150914.957 -16708373.563 10 0 60947 52200.00000 0 6986108.940 15725948.458 -18770208.932 10 0 60947 53100.00000 0 5013311.897 14301243.511 -20465610.395 10 0 60947 54000.00000 0 2780671.775 12934965.283 -21761563.355 10 0 60947 54900.00000 0 333335.519 11679200.970 -22632899.652 10 0 60947 55800.00000 0 -2274000.740 10577795.341 -23062784.707 10 0 60947 56700.00000 0 -4979141.408 9664557.584 -23043036.379 10 0 60947 57600.00000 0 -7714759.316 8961914.525 -22574270.157 10 0 60947 58500.00000 0 -10410981.925 8480065.777 -21665869.087 10 0 60947 59400.00000 0 -12998087.168 8216674.556 -20335780.442 10 0 60947 60300.00000 0 -15409196.153 8157104.880 -18610144.629 10 0 60947 61200.00000 0 -17582850.549 8275192.603 -16522765.103 10 0 60947 62100.00000 0 -19465367.939 8534515.165 -14114431.066 10 0 60947 63000.00000 0 -21012878.194 8890104.093 -11432107.437 10 0 60947 63900.00000 0 -22192957.774 9290525.948 -8528008.970 10 0 60947 64800.00000 0 -22985796.006 9680242.354 -5458577.402 10 0 60947 65700.00000 0 -23384847.197 10002148.518 -2283382.059 10 0 60947 66600.00000 0 -23396943.969 10200182.764 936034.404 10 0 60947 67500.00000 0 -23041869.645 10221897.146 4137342.797 10 0 60947 68400.00000 0 -22351409.761 10020881.425 7258624.154 10 0 60947 69300.00000 0 -21367924.166 9558939.199 10239553.976 10 0 60947 70200.00000 0 -20142500.536 8807925.664 13022552.144 10 0 60947 71100.00000 0 -18732766.930 7751170.715 15553877.680 10 0 60947 72000.00000 0 -17200454.586 6384428.310 17784648.728 10 0 60947 72900.00000 0 -15608811.860 4716312.468 19671769.793 10 0 60947 73800.00000 0 -14019975.876 2768201.167 21178750.015 10 0 60947 74700.00000 0 -12492409.881 573611.019 22276398.163 10 0 60947 75600.00000 0 -11078511.409 -1822933.095 22943382.169 10 0 60947 76500.00000 0 -9822489.322 -4367488.859 23166643.138 10 0 60947 77400.00000 0 -8758597.003 -6998684.497 22941656.042 10 0 60947 78300.00000 0 -7909794.594 -9650024.446 22272531.680 10 0 60947 79200.00000 0 -7286895.975 -12252419.991 21171956.905 10 0 60947 80100.00000 0 -6888236.590 -14736842.425 19660972.747 10 0 60947 81000.00000 0 -6699877.067 -17036990.684 17768592.715 10 0 60947 81900.00000 0 -6696335.524 -19091863.924 15531266.434 10 0 60947 82800.00000 0 -6841819.499 -20848132.442 12992196.679 10 0 60947 83700.00000 0 -7091907.284 -22262207.839 10200520.921 10 0 60947 84600.00000 0 -7395609.129 -23301924.898 7210371.403 10 0 60947 85500.00000 0 -7697722.093 -23947763.174 4079830.796 99